Regional Weather Roundup
Issued by NWS

Home | Current Version | Previous Version | Text Only | Print | Product List | Glossary On
Versions: 1 2 3 4 5 6 7 8 9 10 11 12 13 14 15 16 17 18 19 20 21 22 23 24 25 26 27 28
000
ASUS45 KSLC 210910
RWRUT

UTAH REGIONAL WEATHER ROUNDUP
NATIONAL WEATHER SERVICE SALT LAKE CITY UT
300 AM MDT THU SEP 21 2017

UTZ001>011-023>025-211000-

NORTHERN UTAH

CITY           SKY/WX    TMP DP  RH WIND       PRES   REMARKS
BRIGHAM CITY   CLOUDY    52  40  63 NW7       29.74S
HILL AFB       PTCLDY    49  41  74 N6        29.73S
LOGAN          MOCLDY    49  44  83 N9        29.75S
OGDEN          MOCLDY    50  42  74 W6        29.71S
SALT LAKE CITY PTCLDY    54  44  69 NW12      29.72R
TOOELE VALLEY  MOCLDY    52  43  71 W8        29.75R
WENDOVER       NOT AVBL
HEBER CITY     CLOUDY    64  32  29 S15G33    29.70F
WEST JORDAN    CLEAR     51  46  82 NW9       29.74S

$$

UTZ011>015-024>027-211000-

CENTRAL/NORTHEAST UTAH

CITY           SKY/WX    TMP DP  RH WIND       PRES   REMARKS
PROVO AIRPORT  PTCLDY    67  37  33 S10       29.70F
MOAB/CANYONLAN CLEAR     64  31  28 SW13      29.75S
DELTA          CLEAR     64  32  29 S17G32    29.71S
PRICE          CLEAR     60  33  36 S8        29.79F
ROOSEVELT      CLEAR     50  37  62 W5        29.74S
VERNAL         CLEAR     57  37  47 CALM      29.71S

$$

UTZ013>016-019>022-027-211000-

SOUTHERN UTAH

CITY           SKY/WX    TMP DP  RH WIND       PRES   REMARKS
BRYCE CANYON   CLEAR     51  37  58 SE9       29.98F
CEDAR CITY     CLEAR     63  37  38 S23G38    29.79F
MILFORD        CLEAR     63  40  42 S20       29.73F
ST GEORGE      MOSUNNY   72  41  32 SE13      29.71F
HANKSVILLE     CLEAR     72  32  23 SW16G23   29.79S
BLANDING         N/A     58  34  40 S5        30.02F

$$

REGIONAL REPORTS     COLORADO/ARIZONA

CITY           SKY/WX    TMP DP  RH WIND       PRES   REMARKS
CRAIG, CO      CLEAR     44  34  67 E3        29.82R
GRAND JUNCTION CLEAR     71  31  22 SE17      29.79R
RIFLE, CO      CLEAR     60  29  30 CALM      29.82S
MONTROSE, CO   CLEAR     68  27  21 S17G23    29.93R
CORTEZ, CO     CLEAR     50  33  52 NE5       30.00S
PAGE, AZ       CLEAR     69  38  32 VRB5      29.82S
GRAND CANYON   CLEAR     56  41  57 S13       30.00F
KINGMAN, AZ    CLEAR     72  37  28 S16       29.82F
FLAGSTAFF, AZ  CLEAR     54  36  50 SW10      30.06F

$$

REGIONAL REPORTS    NEVADA/IDAHO/WYOMING

CITY           SKY/WX    TMP DP  RH WIND       PRES   REMARKS
LAS VEGAS, NV  CLEAR     77  43  29 S22G30    29.63F
ELY, NY        PTCLDY    55  33  43 S10       29.74F
ELKO, NV       LGT RAIN  43  39  86 S6        29.81F
POCATELLO, ID  LGT RAIN  45  43  93 S8        29.78S
BURLEY, ID     LGT RAIN  44  43  96 W6        29.77S
FORT BRIDGER,    N/A     45  34  66 N5        29.77F
EVANSTON, WY   CLOUDY    42  35  76 S6        29.75S
ROCK SPRINGS,  CLEAR     55  31  39 S12       29.72R
KEMMERER, WY     N/A     41  34  75 NW3       29.77S

$$




USA.gov is the U.S. government's official web portal to all federal, state and local government web resources and services.